Location: Caltech
(34.1382°N, 118.1253°W)
Time: 18:18:03
(UTC-08:00)

HO-68 - Visible Passes

Search period start: 10 December 2017 00:00
Search period end: 20 December 2017 00:00
Orbit: 1193 x 1204 km, 100.1° (Epoch: 09 December)

Date Brightness Start Highest point End Pass type
(mag) Time Alt. Az. Time Alt. Az. Time Alt. Az.
10 Dec ? 17:20:05 10° SE 17:26:35 38° ENE 17:33:06 10° N visible
10 Dec ? 19:07:47 10° SSW 19:14:13 35° W 19:20:42 10° NW visible
11 Dec ? 17:03:53 10° ESE 17:09:50 29° ENE 17:15:48 10° N visible
11 Dec ? 18:50:21 10° S 18:57:12 47° W 19:04:07 10° NNW visible
12 Dec ? 06:21:58 10° NNE 06:28:42 42° E 06:35:22 10° S visible
12 Dec ? 18:33:08 10° S 18:40:14 64° WSW 18:47:23 10° NNW visible
13 Dec ? 06:05:27 10° NE 06:11:40 31° E 06:17:50 10° SSE visible
13 Dec ? 18:16:06 10° SSE 18:23:18 84° WSW 18:30:33 10° NNW visible
13 Dec ? 20:10:01 10° WSW 20:11:49 11° W 20:13:38 10° WNW visible
14 Dec ? 05:49:09 10° NE 05:54:36 23° E 06:00:00 10° SE visible
14 Dec ? 17:59:15 10° SSE 18:06:25 75° ENE 18:13:36 10° N visible
14 Dec ? 19:50:28 10° SW 19:54:41 16° W 19:58:55 10° NW visible
15 Dec ? 05:33:15 10° NE 05:37:29 16° E 05:41:41 10° SE visible
15 Dec ? 17:42:35 10° SSE 17:49:34 57° ENE 17:56:34 10° N visible
15 Dec ? 19:32:08 10° SW 19:37:34 23° W 19:43:01 10° NW visible
16 Dec ? 05:18:31 10° ENE 05:20:20 11° E 05:22:08 10° ESE visible
16 Dec ? 17:26:05 10° SE 17:32:46 43° ENE 17:39:26 10° N visible
16 Dec ? 19:14:18 10° SSW 19:20:30 31° W 19:26:44 10° NW visible
17 Dec ? 17:09:48 10° SE 17:16:00 33° ENE 17:22:11 10° N visible
17 Dec ? 18:56:46 10° SSW 19:03:28 42° W 19:10:13 10° NNW visible
18 Dec ? 18:39:28 10° S 18:46:29 56° WSW 18:53:33 10° NNW visible
19 Dec ? 06:11:29 10° NNE 06:17:56 35° E 06:24:20 10° SSE visible
19 Dec ? 18:22:22 10° S 18:29:32 75° WSW 18:36:45 10° NNW visible
